Location: Kerb�bon
(47.7970°N, 3.3487°W)
Time: 09:30:03
(UTC+00:00)

Gblst 52 Del rocket - Pass Details

Date: 12 May 2021
Orbit: 805 x 1365 km, 51.5° (Epoch: 20 June)

Event Time Altitude Azimuth Distance (km) Brightness Sun altitude
Rises 23:13:45 0° 293° (WNW) 3,986 8.2 -22.6°
Reaches altitude 10° 23:16:39 10° 293° (WNW) 2,938 7.4 -22.8°
Maximum altitude 23:23:38 83° 206° (SSW) 987 4.4 -23.0°
Enters shadow 23:26:15 37° 123° (ESE) 1,410 5.0 -23.1°
